User: anonymous   Login
Location: Elstree
(51.6403°N, 0.2969°W)
Time: 01:51:31
(UTC+00:00)
Language:

Meteor 1-11 Rocket - Orbit

View from above orbital plane
View from above orbital plane
View from above satellite
View from above satellite

Ground track
Ground track

The orbit data is extracted from the following two-line orbital elements,

1 05918U 72022B   21125.43307643  .00000080  00000-0  41092-4 0  9995
2 05918  81.2413  33.8817 0057526 302.4188  57.1423 14.05885579517002
Epoch (UTC): 05 May 2021 10:23:37
Eccentricity: 0.0057526
inclination: 81.2413°
perigee height: 832 km
apogee height: 915 km
right ascension of ascending node: 33.8817°
argument of perigee: 302.4188°
revolutions per day: 14.05885579
mean anomaly at epoch: 57.1423°
orbit number at epoch: 51700

The dashed part of the orbit path shows where the satellite is in the earth's shadow,  

DLR